sat.trackr.live / text

‹ back to catalog

ARVAKER-2

NORAD 64567 · 2025-135AR

PAYLOAD ACTIVE UNKNOWN

§ Identity

Operator
Country
NOR
Launch date
2025-06-23
Launch site
AFWTR
Launch vehicle
Mass (kg)
RCS (m²)

External: N2YO · Heavens-Above · Gunter

§ Orbital elements

Epoch: 2026-09-21T21:33:56.526624Z

Period
96.39 min
Inclination
97.7815°
Eccentricity
0.0001759
Mean motion
14.93870743 rev/d
Perigee alt
584.7 km
Apogee alt
587.1 km
Semi-major
6,964.0 km
B*
8.5865e-5
RAAN
18.0426°
Arg perigee
42.4908°
Mean anomaly
317.6448°
Rev number
6,831

§ Raw data

ARVAKER-21 64567U 25135AR  26264.89857091  .00000855  00000+0  85865-4 0  99942 64567  97.7815  18.0426 0001759  42.4908 317.6448 14.93870743 68314

JSON: /api/v1/satellites/64567 · /tle

For live sub-satellite position, see the globe view (requires WebGL).

§ Visibility from observer

Set your observer location to see the next 7 days of passes ≥ 10°. The values pass through the URL so the page stays shareable.

No JS? Fill the form by hand. The geolocation button needs JavaScript.